Regional Weather Roundup
Issued by NWS Albany, NY

Home | Current Version | Previous Version | Text Only | Print | Product List | Glossary On
Versions: 1 2 3 4 5 6 7 8 9 10 11 12 13 14 15 16 17 18 19 20 21 22 23 24 25 26 27
000
ASUS41 KALY 292310
RWRALY

NEW YORK STATE HOURLY WEATHER ROUNDUP
NATIONAL WEATHER SERVICE ALBANY NY
700 PM EDT FRI JUL 29 2016

NOTE: "FAIR" INDICATES FEW OR NO CLOUDS BELOW 12,000 FEET WITH NO
SIGNIFICANT WEATHER AND/OR NO OBSTRUCTIONS TO VISIBILITY.

NYZ032-033-038>043-046>054-057>066-NYZ062>081-082-084-300000-
EAST


CITY           SKY/WX    TMP DP  RH WIND       PRES   REMARKS
ALBANY         MOSUNNY   84  57  39 NE8       29.88R
GLENS FALLS    SUNNY     82  56  40 NE12      29.90R
POUGHKEEPSIE   CLOUDY    87  67  51 W5        29.84R HX  90
NEWBURGH       PTSUNNY   79  70  73 N7        29.89
MONTGOMERY     LGT RAIN  77  71  82 CALM      29.88S
WHITE PLAINS   MOSUNNY   78  68  71 S5        29.88R
ISLIP          MOSUNNY   78  68  71 SE10      29.86R
NEW YORK CITY  MOSUNNY   83  69  62 S13       29.86R
CENTRAL PARK   SUNNY     81  69  67 VRB3      29.89R
$$

NYZ005>009-017-018-044>046-055-056-300000-
CENTRAL


CITY           SKY/WX    TMP DP  RH WIND       PRES   REMARKS
FULTON         SUNNY     83  56  39 N7        29.94R
SYRACUSE       MOSUNNY   81  54  39 NW14      29.92R
ROME           SUNNY     82  55  39 N8        29.91S
ELMIRA         MOSUNNY   81  58  45 N9        29.93R
BINGHAMTON     SUNNY     79  58  48 N13       29.95S
MONTICELLO     SUNNY     79  66  65 CALM      29.95R
$$

NYZ026>034-041>043-087-300000-
NORTH


CITY           SKY/WX    TMP DP  RH WIND       PRES   REMARKS
WATERTOWN      SUNNY     81  51  35 NE9       29.94R
FORT DRUM      NOT AVBL
MASSENA        SUNNY     76  55  48 N8        29.97R
SARANAC LAKE   SUNNY     73  55  53 VRB3      29.98R
PLATTSBURGH    SUNNY     77  57  50 N13       29.93R
$$

NYZ001>004-010>016-019>021-085-300000-
WEST


CITY           SKY/WX    TMP DP  RH WIND       PRES   REMARKS
NIAGARA FALLS  PTSUNNY   82  60  47 NE10      29.96S
BUFFALO        PTSUNNY   80  61  52 NE10      29.95S
DUNKIRK        MOSUNNY   80  67  64 N9        29.95R
JAMESTOWN      MOSUNNY   73  66  78 CALM      29.99S
WELLSVILLE     CLOUDY    76  63  64 CALM      30.02S
ROCHESTER      PTSUNNY   81  58  45 NE8       29.96R
PENN YAN       SUNNY     80  56  43 N7        29.96S
$$

             KEY
       WCI = WIND CHILL INDEX
       VSB = VISIBILITY
       HX  = HEAT INDEX
$$




USA.gov is the U.S. government's official web portal to all federal, state and local government web resources and services.